Regional Weather Roundup
Issued by NWS

Home | Current Version | Previous Version | Text Only | Print | Product List | Glossary On
Versions: 1 2 3 4 5 6 7 8 9 10 11 12 13 14 15 16 17 18 19 20 21 22 23 24 25 26 27 28 29 30 31 32 33 34 35 36 37 38 39 40 41 42 43 44 45 46 47 48 49 50
000
ASUS43 KDTX 232301
RWRMI
MICHIGAN HOURLY REGIONAL WEATHER ROUNDUP
NATIONAL WEATHER SERVICE DETROIT/PONTIAC MI
600 PM EST MON JAN 23 2017

NOTE: "FAIR" INDICATES FEW OR NO CLOUDS BELOW 12,000 FEET WITH NO
SIGNIFICANT WEATHER AND/OR OBSTRUCTION TO VISIBILITY.

MIZ047>049-052>055-059>063-066>070-074>076-081>083-240000-
SOUTHEAST LOWER MICHIGAN

CITY           SKY/WX    TMP DP  RH WIND       PRES   REMARKS
ADRIAN         CLOUDY    42  42 100 N9        29.67R
ALMA           LGT RAIN  38  38  99 N6        29.72R WCI  34
ANN ARBOR      CLOUDY    42  42 100 NW8       29.66S FOG
BAD AXE        CLOUDY    37  37 100 NE5       29.72R FOG     WCI  33
CARO           CLOUDY    38  38 100 CALM      29.70R FOG
DETROIT CITY   CLOUDY    42  41  96 N7        29.68R FOG
DETROIT        CLOUDY    44  41  89 N6        29.68R FOG
FLINT          CLOUDY    40  38  93 NE7       29.69R
GROSSE ILE     CLOUDY    42  41  95 NE8       29.66R FOG
HILLSDALE      LGT RAIN  39  39 100 NW7       29.66R WCI  34
HOWELL         DRIZZLE   40  39  97 CALM      29.68S

CITY           SKY/WX    TMP DP  RH WIND       PRES   REMARKS
JACKSON        LGT RAIN  40  39  97 N6        29.68R FOG
LAMBERTVILLE   CLOUDY    45  42  92 N3        29.66S FOG
LANSING        LGT RAIN  39  37  92 N7        29.71R FOG     WCI  34
LAPEER         CLOUDY    39  38  99 CALM      29.70R FOG
MASON          LGT RAIN  39  39 100 N5        29.69S
MONROE         CLOUDY    44  43  97 N6        29.66R FOG
MT. CLEMENS    CLOUDY    40  40 100 N7        29.66R FOG
PONTIAC        FOG       39  37  92 N7        29.66R VSB 1   WCI  34
PORT HOPE        N/A     37  36  96 NE8       29.71S WCI  31
PORT HURON     CLOUDY    37  37 100 N6        29.69R FOG     WCI  33
TRI CITIES     LGT RAIN  36  36 100 N8        29.72R VSB 1/2 WCI  30
MIDLAND        DRIZZLE   38  38  97 CALM      29.72R
TROY           CLOUDY    41  39  93 NE9       29.70R
SAGINAW HB     LGT RAIN  37  36  93 N5        29.71S WCI  34
$$
MIZ043>046-050>051-056>058-064>065-071>073-077>080-240000-
SOUTHWEST LOWER MICHIGAN

CITY           SKY/WX    TMP DP  RH WIND       PRES   REMARKS
BATTLE CREEK   LGT RAIN  41  41 100 NE7       29.69R FOG
BENTON HARBOR  CLOUDY    39  37  92 VRB6      29.72S WCI  35
BIG RAPIDS     CLOUDY    38  38  97 N5        29.70S FOG     WCI  35
COLDWATER      LGT RAIN  41  41 100 N3        29.68R
FREMONT        CLOUDY    41  38  88 N3        29.72R
HOLLAND        CLOUDY    41  37  86 W5        29.72R
GRAND RAPIDS   DRIZZLE   41  38  89 N7        29.70S FOG
IONIA          LGT RAIN  38  38  99 NE5       29.70S WCI  35
KALAMAZOO      LGT RAIN  40  38  93 N8        29.69S VSB 1   WCI  34
LUDINGTON      FOG       38  38 100 NW7       29.74S VSB 1/4 WCI  32
MARSHALL       LGT RAIN  40  40  98 N3        29.69R
MOUNT PLEASANT LGT RAIN  37  37 100 CALM      29.71S
MUSKEGON       CLOUDY    42  38  85 NW5       29.73R
SOUTH HAVEN    CLOUDY    38  38  97 N7        29.72R WCI  33
$$
MIZ016>042-240000-
NORTHERN LOWER MICHIGAN

CITY           SKY/WX    TMP DP  RH WIND       PRES   REMARKS
ALPENA         CLOUDY    36  35  96 NE3       29.76R FOG
BEAVER ISLAND  FOG       34  34 100 NE7       29.75S VSB 1   WCI  28
BELLAIRE       FOG       36  36  99 CALM      29.74S VSB 3/4
CADILLAC       CLOUDY    37  36  97 CALM      29.70S FOG
CHARLEVOIX     CLOUDY    36  36 100 E5        29.77S FOG     WCI  32
FRANKFORT      CLOUDY    38  38 100 NW3       29.74R FOG
GAYLORD        FOG       37  33  85 NE3       29.72S VSB 1/4
GRAYLING       LGT RAIN  36  36  99 CALM      29.73S
HARBOR SPRINGS CLOUDY    35  35 100 NE6       29.75R FOG     WCI  30
HOUGHTON LAKE  CLOUDY    37  36  96 N3        29.72R FOG
MANISTEE       CLOUDY    39  38  96 NW6       29.74R FOG     WCI  35
OSCODA         CLOUDY    37  36  98 NE3       29.73R FOG
PELLSTON       FOG       35  34  96 E7        29.76S VSB 3/4 WCI  29
ROGERS CITY    MIX PCPN  36  35  96 E3        29.77S
TRAVERSE CITY  CLOUDY    39  38  96 NE5       29.72S FOG
$$
MIZ007>008-015-240000-
EASTERN UPPER MICHIGAN

CITY           SKY/WX    TMP DP  RH WIND       PRES   REMARKS
KINROSS        LGT RAIN  33  33 100 E9        29.79S WCI  25
MACKINAC ISLAN FOG       33  33 100 NE7       29.77S VSB 3/4 WCI  27
NEWBERRY       CLOUDY    33  32  96 NE5       29.77R FOG     WCI  28
S. S. MARIE    CLOUDY    35  34  96 CALM      29.79S FOG
MUNISING         N/A     34  34 100 CALM      29.76S
$$
MIZ004>006-011>014-085-240000-
CENTRAL UPPER MICHIGAN

CITY           SKY/WX    TMP DP  RH WIND       PRES   REMARKS
MANISTIQUE     CLOUDY    34  33  96 NE6       29.76R FOG     WCI  29
ESCANABA       FOG       37  36  96 CALM      29.77R VSB 1/2
SAWYER-GWINN   CLOUDY    34  34 100 N5        29.76R WCI  30
$$
MIZ001>003-009>011-084-240000-
WESTERN UPPER MICHIGAN

CITY           SKY/WX    TMP DP  RH WIND       PRES   REMARKS
IRON MOUNTAIN  CLOUDY    36  33  89 NW3       29.75R
HOUGHTON       CLOUDY    35  32  88 NW7       29.76R WCI  29
COPPER HARBOR    N/A     35  34  96 CALM      29.78R
IRONWOOD       MIX PCPN  35  34  96 W7        29.78R VSB 1/4 WCI  29
$$

ABBREVIATIONS USED IN REMARKS
   TC - TEMPERATURE IN CELSIUS
  WCI - WIND CHILL INDEX
   HX - HEAT INDEX
  VSB - VISIBILITY





USA.gov is the U.S. government's official web portal to all federal, state and local government web resources and services.